Snowfall_Accumulation
0.0 0.0 0.0 0.0 0.0 0.0 0.0 0.0 0.0 0.0 0.0 0.0 0.0 0.0 0.0 0.0 0.0 0.0 0.0 0.0 0.0 0.0 0.0 0.0 0.0 0.0 0.0 0.0 0.0 0.0 0.0 0.0 0.0 0.0 0.0 0.0 0.0 0.0 0.0 0.0 0.0 0.0 0.0
0.0 0.0 0.0 0.0 0.0 0.0 0.0 0.0 0.0 0.0 0.0 0.0 0.0 0.0 0.0 0.0 0.0 0.0 0.0 0.0 0.0 0.0 0.0 0.0 0.0 0.0 0.0 0.0 0.0 0.0 0.0 0.0 0.0 0.0 0.0 0.0 0.0 0.0 0.0 0.0 0.0 0.0 0.0
0.0 0.0 0.0 0.0 0.0 0.0 0.0 0.0 0.0 0.0 0.0 0.0 0.0 0.0 0.0 0.0 0.0 0.0 0.0 0.0 0.0 0.0 0.0 0.0 0.0 0.0 0.0 0.0 0.0 0.0 0.0 0.0 0.0 0.0 0.0 0.0 0.0 0.0 0.0 0.0 0.0 0.0 0.0
0.0 0.0 0.0 0.0 0.0 0.0 0.0 0.0 0.0 0.0 0.0 0.0 0.0 0.0 0.0 0.0 0.0 0.0 0.0 0.0 0.0 0.0 0.0 0.0 0.0 0.0 0.0 0.0 0.0 0.0 0.0 0.0 0.0 0.0 0.0 0.0 0.0 0.0 0.0 0.0 0.0 0.0 0.0
0.0 0.0 0.0 0.0 0.0 0.0 0.0 0.0 0.0 0.0 0.0 0.0 0.0 0.0 0.0 0.0 0.0 0.0 0.0 0.0 0.0 0.0 0.0 0.0 0.0 0.0 0.0 0.0 0.0 0.0 0.0 0.0 0.0 0.0 0.0 0.0 0.0 0.0 0.0 0.0 0.0 0.0 0.0
0.0 0.0 0.0 0.0 0.0 0.0 0.0 0.0 0.0 0.0 0.0 0.0 0.0 0.0 0.0 0.0 0.0 0.0 0.0 0.0 0.0 0.0 0.0 0.0 0.0 0.0 0.0 0.0 0.0 0.0 0.0 0.0 0.0 0.0 0.0 0.0 0.0 0.0 0.0 0.0 0.0 0.0 0.0
0.0 0.0 0.0 0.0 0.0 0.0 0.0 0.0 0.0 0.0 0.0 0.0 0.0 0.0 0.0 0.0 0.0 0.0 0.0 0.0 0.0 0.0 0.0 0.0 0.0 0.0 0.0 0.0 0.0 0.0 0.0 0.0 0.0 0.0 0.0 0.0 0.0 0.0 0.0 0.0 0.0 0.0 0.0
0.0 0.0 0.0 0.0 0.0 0.0 0.0 0.0 0.0 0.0 0.0 0.0 0.0 0.0 0.0 0.0 0.0 0.0 0.0 0.0 0.0 0.0 0.0 0.0 0.0 0.0 0.0 0.0 0.0 0.0 0.0 0.0 0.0 0.0 0.0 0.0 0.0 0.0 0.0 0.0 0.0 0.0 0.0
0.0 0.0 0.0 0.0 0.0 0.0 0.0 0.0 0.0 0.0 0.0 0.0 0.0 0.0 0.0 0.0 0.0 0.0 0.0 0.0 0.0 0.0 0.0 0.0 0.0 0.0 0.0 0.0 0.0 0.0 0.0 0.0 0.0 0.0 0.0 0.0 0.0 0.0 0.0 0.0 0.0 0.0 0.0
0.1 0.1 0.1 0.0 0.0 0.0 0.0 0.0 0.0 0.1 0.2 0.1 0.0 0.0 0.0 0.0 0.2 0.2 0.3 0.2 0.1 0.1 0.0 0.0 0.0 0.0 0.0 0.0 0.0 0.0 0.0 0.0 0.0 0.0 0.0 0.0 0.0 0.0 0.0 0.0 0.0 0.0 0.0
0.2 0.5 0.5 0.1 0.2 0.1 0.1 0.3 1.0 0.9 0.2 0.0 0.0 0.1 0.5 0.8 0.7 0.7 0.6 0.3 0.2 0.2 0.2 0.1 0.1 0.1 0.0 0.0 0.0 0.0 0.0 0.0 0.0 0.0 0.0 0.0 0.0 0.0 0.0 0.0 0.0 0.0 0.0
0.2 0.4 2.1 3.0 2.1 2.5 2.9 2.5 0.9 0.6 0.4 0.1 0.3 1.0 1.3 1.1 1.0 1.1 0.8 0.5 0.5 0.3 0.3 0.2 0.1 0.1 0.1 0.1 0.0 0.0 0.0 0.0 0.0 0.0 0.0 0.0 0.0 0.0 0.0 0.0 0.0 0.0 0.0
0.1 0.2 0.7 1.4 5.0 1.3 3.2 2.1 2.4 3.3 1.5 0.6 1.0 1.8 2.2 1.5 1.7 1.7 1.3 0.9 1.2 0.9 0.5 0.6 0.4 0.2 0.2 0.1 0.1 0.1 0.0 0.0 0.0 0.0 0.0 0.0 0.0 0.0 0.0 0.0 0.0 0.0 0.0
0.4 0.4 0.4 0.7 0.8 1.6 2.6 6.5 2.6 2.9 3.0 2.3 1.9 1.8 2.8 3.0 3.0 2.0 1.6 0.5 0.3 0.3 0.5 1.0 1.2 1.2 0.5 0.2 0.1 0.1 0.1 0.0 0.0 0.0 0.0 0.0 0.0 0.0 0.0 0.0 0.0 0.0 0.0
0.3 0.4 0.7 0.7 0.5 0.5 0.6 0.5 1.0 3.7 5.9 3.4 3.3 4.5 3.1 2.3 1.2 1.3 0.7 0.2 0.4 0.4 0.3 0.1 0.1 0.2 0.6 1.3 0.9 0.6 0.4 0.2 0.2 0.3 0.1 0.1 nan nan nan 0.0 0.0 0.0 0.0
0.3 0.4 0.3 0.2 0.2 0.2 0.4 0.2 0.4 1.8 1.5 4.7 6.4 3.2 2.6 2.7 1.8 1.3 0.9 0.7 0.5 1.0 2.7 1.1 1.0 1.7 0.8 nan nan 0.5 0.9 0.6 0.8 1.2 0.4 0.7 0.6 0.6 nan nan nan nan 0.2
0.3 0.2 0.2 0.2 0.2 0.2 0.1 0.2 0.3 0.6 0.7 1.8 6.5 4.8 4.2 7.0 4.7 1.7 1.8 2.0 2.9 2.1 2.3 2.7 2.7 3.6 3.5 nan nan nan 2.2 2.7 2.7 1.6 0.8 0.5 0.4 nan 0.1 nan nan nan nan
0.2 0.1 0.1 0.1 0.3 0.0 0.0 0.0 0.0 0.0 0.5 0.2 1.0 3.8 4.4 6.6 8.3 5.6 5.7 6.1 3.8 4.0 2.8 3.1 3.5 2.7 4.0 nan nan nan 5.9 4.7 5.1 5.4 4.4 3.2 3.0 2.5 0.6 0.6 1.7 2.4 2.3
0.8 2.1 0.9 0.5 0.1 0.2 0.1 0.0 0.0 0.0 0.0 0.1 0.2 0.3 2.3 5.1 5.2 6.8 7.8 6.1 5.9 5.8 5.6 3.0 3.4 3.2 2.6 nan nan 2.3 4.3 6.0 7.4 5.9 5.1 5.3 6.0 nan nan 4.6 5.5 5.9 9.9
2.2 1.7 1.8 0.3 0.9 0.8 0.1 1.6 1.4 0.5 0.8 0.8 0.5 0.2 0.1 0.5 1.2 2.3 4.5 4.8 3.2 4.9 3.8 3.6 3.4 nan 4.0 nan nan nan 1.6 2.6 3.8 3.3 3.6 nan 3.5 nan nan 2.8 3.7 6.2 13.0
4.5 2.3 2.6 2.7 2.6 2.2 1.3 2.5 4.7 4.7 3.0 1.9 0.5 0.7 0.5 0.6 0.5 0.4 0.7 0.8 0.8 1.1 1.8 2.4 2.7 2.6 2.5 2.9 nan nan 3.7 5.2 4.3 5.2 6.3 5.7 nan nan nan nan 5.3 11.6 12.1
3.0 5.4 5.2 5.2 3.9 3.2 3.1 3.0 3.2 6.0 5.4 4.2 4.3 3.6 2.8 2.2 1.5 1.3 1.3 1.0 0.7 0.7 1.0 0.7 0.8 1.2 1.0 nan nan nan nan nan 3.5 6.1 5.8 6.8 nan nan nan 3.8 nan nan 4.0
2.6 1.7 5.4 6.2 5.3 3.6 3.3 4.5 5.3 4.3 4.6 5.7 6.4 6.3 4.7 5.1 3.9 3.4 3.3 2.7 1.6 2.2 2.6 2.2 2.8 3.1 1.9 2.2 nan nan nan nan 3.1 4.4 8.5 nan nan nan 1.5 nan nan 3.4 6.4
0.5 0.3 0.5 2.9 5.2 5.9 3.4 2.9 3.3 3.5 3.7 4.1 4.2 5.5 6.6 5.6 6.2 4.6 4.4 4.6 4.5 5.1 5.0 4.7 5.7 4.9 4.3 4.2 3.6 3.9 3.7 2.0 4.2 1.8 4.7 3.2 3.9 3.0 4.4 4.8 5.8 6.3 6.3
0.5 0.3 0.4 0.4 1.3 1.0 2.4 2.6 2.2 1.6 1.5 1.7 2.5 1.8 1.6 2.9 3.5 4.7 4.9 4.1 5.6 4.6 4.5 6.1 6.1 9.3 10.6 12.1 8.5 8.6 7.5 6.0 5.6 4.1 5.5 4.8 3.9 4.1 4.1 4.1 4.2 3.6 3.5
0.0 0.0 0.0 0.0 0.1 0.1 0.2 0.1 0.1 0.1 0.6 0.4 1.1 1.7 1.7 1.9 2.2 2.5 3.2 nan nan nan nan nan 4.4 8.2 nan nan nan nan nan nan nan 3.9 6.4 10.9 10.9 7.8 5.9 6.3 5.8 5.0 4.0
Water_Equivalent
0.00 0.00 0.00 0.00 0.00 0.00 0.00 0.00 0.00 0.00 0.00 0.00 0.00 0.00 0.00 0.00 0.00 0.00 0.00 0.00 0.00 0.00 0.00 0.00 0.00 0.00 0.00 0.00 0.00 0.00 0.00 0.00 0.00 0.00 0.00 0.00 0.00 0.00 0.00 0.00 0.00 0.00 0.00
0.00 0.00 0.00 0.00 0.00 0.00 0.00 0.00 0.00 0.00 0.00 0.00 0.00 0.00 0.00 0.00 0.00 0.00 0.00 0.00 0.00 0.00 0.00 0.00 0.00 0.00 0.00 0.00 0.00 0.00 0.00 0.00 0.00 0.00 0.00 0.00 0.00 0.00 0.00 0.00 0.00 0.00 0.00
0.00 0.00 0.00 0.00 0.00 0.00 0.00 0.00 0.00 0.00 0.00 0.00 0.00 0.00 0.00 0.00 0.00 0.00 0.00 0.00 0.00 0.00 0.00 0.00 0.00 0.00 0.00 0.00 0.00 0.00 0.00 0.00 0.00 0.00 0.00 0.00 0.00 0.00 0.00 0.00 0.00 0.00 0.00
0.00 0.00 0.00 0.00 0.00 0.00 0.00 0.00 0.00 0.00 0.00 0.00 0.00 0.00 0.00 0.00 0.00 0.00 0.00 0.00 0.00 0.00 0.00 0.00 0.00 0.00 0.00 0.00 0.00 0.00 0.00 0.00 0.00 0.00 0.00 0.00 0.00 0.00 0.00 0.00 0.00 0.00 0.00
0.00 0.00 0.00 0.00 0.00 0.00 0.00 0.00 0.00 0.00 0.00 0.00 0.00 0.00 0.00 0.00 0.00 0.00 0.00 0.00 0.00 0.00 0.00 0.00 0.00 0.00 0.00 0.00 0.00 0.00 0.00 0.00 0.00 0.00 0.00 0.00 0.00 0.00 0.00 0.00 0.00 0.00 0.00
0.00 0.00 0.00 0.00 0.00 0.00 0.00 0.00 0.00 0.00 0.00 0.00 0.00 0.00 0.00 0.00 0.00 0.00 0.00 0.00 0.00 0.00 0.00 0.00 0.00 0.00 0.00 0.00 0.00 0.00 0.00 0.00 0.00 0.00 0.00 0.00 0.00 0.00 0.00 0.00 0.00 0.00 0.00
0.00 0.00 0.00 0.00 0.00 0.00 0.00 0.00 0.00 0.00 0.00 0.00 0.00 0.00 0.00 0.00 0.00 0.00 0.00 0.00 0.00 0.00 0.00 0.00 0.00 0.00 0.00 0.00 0.00 0.00 0.00 0.00 0.00 0.00 0.00 0.00 0.00 0.00 0.00 0.00 0.00 0.00 0.00
0.00 0.00 0.00 0.00 0.00 0.00 0.00 0.00 0.00 0.00 0.00 0.00 0.00 0.00 0.00 0.00 0.00 0.00 0.00 0.00 0.00 0.00 0.00 0.00 0.00 0.00 0.00 0.00 0.00 0.00 0.00 0.00 0.00 0.00 0.00 0.00 0.00 0.00 0.00 0.00 0.00 0.00 0.00
0.00 0.00 0.00 0.00 0.00 0.00 0.00 0.00 0.00 0.00 0.00 0.00 0.00 0.00 0.00 0.00 0.00 0.00 0.00 0.00 0.00 0.00 0.00 0.00 0.00 0.00 0.00 0.00 0.00 0.00 0.00 0.00 0.00 0.00 0.00 0.00 0.00 0.00 0.00 0.00 0.00 0.00 0.00
0.03 0.02 0.01 0.01 0.00 0.00 0.00 0.00 0.00 0.01 0.03 0.01 0.00 0.00 0.00 0.01 0.03 0.03 0.04 0.04 0.02 0.01 0.01 0.00 0.00 0.00 0.00 0.00 0.00 0.00 0.00 0.00 0.00 0.00 0.00 0.00 0.00 0.00 0.00 0.00 0.00 0.00 0.00
0.05 0.12 0.12 0.03 0.04 0.03 0.02 0.06 0.16 0.15 0.04 0.00 0.00 0.01 0.08 0.13 0.11 0.12 0.10 0.06 0.04 0.04 0.03 0.03 0.02 0.02 0.00 0.00 0.00 0.00 0.00 0.00 0.00 0.00 0.00 0.00 0.00 0.00 0.00 0.00 0.00 0.00 0.00
0.04 0.08 0.57 0.83 0.50 0.59 0.68 0.46 0.16 0.13 0.10 0.03 0.04 0.14 0.19 0.17 0.16 0.19 0.15 0.09 0.09 0.06 0.07 0.05 0.04 0.05 0.03 0.02 0.01 0.00 0.00 0.00 0.00 0.00 0.00 0.00 0.00 0.00 0.00 0.00 0.00 0.00 0.00
0.02 0.04 0.14 0.26 1.31 0.24 0.74 0.41 0.49 0.55 0.36 0.12 0.15 0.25 0.30 0.22 0.28 0.25 0.21 0.16 0.19 0.17 0.10 0.11 0.09 0.06 0.05 0.05 0.04 0.03 0.00 0.00 0.00 0.00 0.00 0.00 0.00 0.00 0.00 0.00 0.00 0.00 0.00
0.06 0.06 0.06 0.12 0.13 0.30 0.52 1.53 0.49 0.52 0.68 0.63 0.33 0.28 0.42 0.45 0.43 0.29 0.24 0.09 0.05 0.04 0.09 0.16 0.21 0.22 0.10 0.05 0.03 0.03 0.02 0.01 0.00 0.00 0.00 0.00 0.00 0.00 0.00 0.00 0.00 0.00 0.00
0.05 0.06 0.10 0.10 0.08 0.08 0.11 0.09 0.20 0.74 1.29 0.89 0.81 0.99 0.53 0.39 0.21 0.20 0.11 0.05 0.10 0.08 0.06 0.03 0.03 0.05 0.10 0.22 0.15 0.11 0.07 0.05 0.05 0.07 0.03 0.03 nan nan nan 0.00 0.00 0.00 0.00
0.05 0.06 0.05 0.03 0.03 0.03 0.08 0.04 0.07 0.32 0.28 0.81 1.19 0.61 0.58 0.84 0.43 0.28 0.16 0.14 0.09 0.23 0.63 0.21 0.20 0.34 0.17 nan nan 0.11 0.17 0.11 0.14 0.20 0.08 0.12 0.11 0.12 nan nan nan nan 0.03
0.04 0.03 0.04 0.04 0.04 0.03 0.02 0.03 0.05 0.12 0.13 0.33 1.41 1.17 0.94 1.85 0.87 0.30 0.36 0.39 0.75 0.60 0.43 0.56 0.57 0.76 0.62 nan nan nan 0.49 0.56 0.54 0.28 0.15 0.10 0.08 nan 0.03 nan nan nan nan
0.03 0.02 0.02 0.03 0.05 0.00 0.01 0.00 0.00 0.01 0.10 0.03 0.18 0.76 0.86 1.39 2.53 1.26 1.33 1.45 0.68 0.74 0.49 0.56 0.80 0.65 1.28 nan nan nan 1.33 0.95 0.93 1.18 0.81 0.63 0.54 0.52 0.13 0.14 0.33 0.43 0.41
0.13 0.35 0.14 0.09 0.03 0.03 0.02 0.00 0.01 0.00 0.01 0.03 0.04 0.05 0.52 0.96 1.08 1.57 2.04 1.82 1.67 1.62 1.42 0.70 0.75 0.81 0.63 nan nan 0.51 1.01 1.50 2.04 1.51 1.17 1.15 1.15 nan nan 0.93 1.03 1.10 1.99
0.45 0.31 0.37 0.07 0.22 0.22 0.03 0.35 0.27 0.11 0.15 0.15 0.09 0.03 0.03 0.11 0.25 0.47 0.99 1.27 0.81 1.31 1.05 1.11 0.96 nan 0.88 nan nan nan 0.47 0.52 0.76 0.76 0.95 nan 0.99 nan nan 0.57 0.61 0.98 2.31
1.02 0.55 0.66 0.54 0.51 0.61 0.38 0.53 1.13 0.89 0.60 0.49 0.12 0.17 0.11 0.14 0.13 0.12 0.19 0.20 0.21 0.27 0.40 0.53 0.61 0.53 0.43 0.56 nan nan 0.67 0.90 0.75 0.88 1.04 1.11 nan nan nan nan 0.92 1.97 2.36
0.52 1.21 0.82 0.92 0.73 0.81 0.90 0.78 0.70 1.68 1.41 0.95 0.86 0.75 0.58 0.49 0.36 0.31 0.34 0.28 0.21 0.23 0.27 0.21 0.22 0.32 0.25 nan nan nan nan nan 0.61 0.96 1.01 1.29 nan nan nan 0.86 nan nan 1.05
0.40 0.29 0.88 0.98 0.75 0.56 0.76 0.99 1.07 1.19 1.15 1.42 1.31 1.27 1.10 1.09 0.91 0.77 0.73 0.60 0.38 0.49 0.50 0.52 0.62 0.68 0.46 0.52 nan nan nan nan 0.64 0.94 1.67 nan nan nan 0.51 nan nan 1.13 1.57
0.08 0.05 0.09 0.37 0.71 0.88 0.49 0.51 0.64 0.66 0.96 0.83 0.78 1.11 1.18 1.06 1.03 0.90 0.88 0.86 0.85 0.95 1.00 0.89 0.99 0.95 0.89 0.91 0.85 0.93 0.93 0.59 0.97 0.52 1.11 1.05 0.98 1.01 1.23 1.15 1.13 1.21 1.24
0.08 0.05 0.06 0.06 0.18 0.16 0.36 0.42 0.40 0.32 0.27 0.29 0.47 0.32 0.30 0.47 0.54 0.65 0.66 0.59 0.77 0.69 0.66 0.89 0.95 1.49 1.63 1.96 1.67 1.77 1.49 1.27 1.26 1.06 1.21 0.98 0.73 0.70 0.69 0.69 0.70 0.61 0.58
0.00 0.00 0.00 0.00 0.01 0.02 0.03 0.02 0.02 0.03 0.11 0.08 0.20 0.34 0.35 0.37 0.38 0.41 0.49 nan nan nan nan nan 0.81 1.48 nan nan nan nan nan nan nan 0.77 1.08 1.65 1.64 1.10 0.80 0.87 0.80 0.70 0.65
SL_Ratio
nan nan nan nan nan nan nan nan nan nan nan nan nan nan nan nan nan nan nan nan nan nan nan nan nan nan nan nan nan nan nan nan nan nan nan nan nan nan nan nan nan nan nan
nan nan nan nan nan nan nan nan nan nan nan nan nan nan nan nan nan nan nan nan nan nan nan nan nan nan nan nan nan nan nan nan nan nan nan nan nan nan nan nan nan nan nan
nan nan nan nan nan nan nan nan nan nan nan nan nan nan nan nan nan nan nan nan nan nan nan nan nan nan nan nan nan nan nan nan nan nan nan nan nan nan nan nan nan nan nan
nan nan nan nan nan nan nan nan nan nan nan nan nan nan nan nan nan nan nan nan nan nan nan nan nan nan nan nan nan nan nan nan nan nan nan nan nan nan nan nan nan nan nan
nan nan nan nan nan nan nan nan nan nan nan nan nan nan nan nan nan nan nan nan nan nan nan nan nan nan nan nan nan nan nan nan nan nan nan nan nan nan nan nan nan nan nan
nan nan nan nan nan nan nan nan nan nan nan nan nan nan nan nan nan nan nan nan nan nan nan nan nan nan nan nan nan nan nan nan nan nan nan nan nan nan nan nan nan nan nan
nan nan nan nan nan nan nan nan nan nan nan nan nan nan nan nan nan nan nan nan nan nan nan nan nan nan nan nan nan nan nan nan nan nan nan nan nan nan nan nan nan nan nan
nan nan nan nan nan nan nan nan nan nan nan nan nan nan nan nan nan nan nan nan nan nan nan nan nan nan nan nan nan nan nan nan nan nan nan nan nan nan nan nan nan nan nan
nan 0.0 nan nan nan nan nan nan nan nan nan nan nan nan nan 5.7 nan nan 0.0 6.3 0.0 nan nan nan nan nan nan nan nan nan nan nan nan nan nan nan nan nan nan nan nan nan nan
4.0 4.0 3.9 3.6 4.0 nan nan 4.3 nan 5.9 5.8 5.5 nan nan 5.7 5.8 6.1 6.0 6.0 5.7 5.5 5.3 5.2 5.0 5.0 nan nan nan nan nan nan nan nan nan nan nan nan nan nan nan nan nan nan
4.7 3.8 3.9 4.1 3.8 3.8 4.5 5.4 5.9 5.9 5.6 5.0 4.0 6.0 6.5 6.4 6.1 6.1 5.7 5.3 5.2 4.9 5.0 4.8 4.5 4.0 3.6 2.0 nan nan nan nan nan nan nan nan nan nan nan nan nan nan nan
5.1 5.1 3.7 3.6 4.3 4.2 4.4 5.5 5.4 4.5 3.8 5.0 6.7 7.0 7.0 6.4 6.2 5.6 5.4 5.4 5.2 5.1 4.8 3.9 3.4 3.1 2.9 2.5 2.4 3.3 nan nan nan nan nan nan nan nan nan nan nan nan nan
5.4 5.7 5.2 5.5 3.8 5.6 4.4 5.1 5.0 5.9 4.1 4.7 6.9 7.2 7.3 6.8 6.2 6.7 6.3 5.7 6.1 5.7 5.3 4.9 4.0 3.4 3.2 2.9 2.6 2.5 3.8 3.3 5.0 nan nan nan nan nan nan nan nan nan nan
6.2 6.3 6.2 6.2 6.1 5.3 5.0 4.2 5.3 5.6 4.4 3.7 5.8 6.5 6.5 6.5 7.0 6.8 6.5 6.2 6.4 6.4 6.3 6.0 5.8 5.5 4.8 4.3 3.3 2.8 2.7 2.6 3.6 5.0 3.3 nan nan nan nan nan nan nan nan
6.6 6.7 6.7 6.6 6.3 6.2 5.9 5.4 5.0 5.0 4.6 3.9 4.1 4.6 5.9 5.8 5.6 6.2 5.9 4.4 4.5 4.8 4.2 4.5 4.4 5.2 6.1 6.3 6.3 6.0 5.2 4.8 4.1 4.5 4.0 4.1 nan nan nan 4.0 0.0 nan nan
6.6 6.6 6.3 6.3 5.9 5.5 5.6 4.9 5.5 5.7 5.2 5.8 5.4 5.2 4.5 3.2 4.3 4.7 5.7 5.0 5.2 4.5 4.4 5.2 4.8 5.2 4.8 nan nan 5.1 5.2 5.4 6.0 5.8 5.4 5.5 5.2 5.1 nan nan nan nan 6.1
6.4 6.4 6.2 5.9 5.7 5.6 5.3 5.4 5.4 5.0 5.2 5.4 4.6 4.1 4.5 3.8 5.4 5.5 5.0 5.1 3.9 3.6 5.2 4.9 4.7 4.8 5.6 nan nan nan 4.5 4.8 5.0 5.8 5.2 4.9 4.8 nan 4.5 nan nan nan nan
5.8 5.7 5.9 5.8 5.7 5.7 5.0 nan nan 4.7 5.3 5.2 5.5 5.0 5.1 4.8 3.3 4.4 4.3 4.2 5.6 5.4 5.7 5.6 4.4 4.1 3.1 nan nan nan 4.4 5.0 5.4 4.5 5.4 5.1 5.6 4.9 4.5 4.1 5.2 5.5 5.7
6.4 6.0 6.4 5.6 4.2 4.8 4.1 3.3 4.0 3.8 4.3 4.7 5.0 4.9 4.3 5.3 4.8 4.4 3.8 3.4 3.5 3.6 4.0 4.4 4.5 4.0 4.1 nan nan 4.6 4.2 4.0 3.6 3.9 4.3 4.6 5.2 nan nan 4.9 5.4 5.3 4.9
4.9 5.5 4.8 4.2 3.9 3.8 3.3 4.6 5.1 4.6 5.4 5.3 5.1 4.6 4.3 4.4 4.8 5.0 4.5 3.7 3.9 3.7 3.6 3.2 3.6 nan 4.6 nan nan nan 3.5 5.0 4.9 4.3 3.8 nan 3.5 nan nan 4.9 6.1 6.3 5.6
4.4 4.2 3.9 4.9 5.2 3.7 3.5 4.6 4.1 5.3 4.9 3.9 4.0 4.2 4.3 3.9 3.5 3.4 3.4 3.7 3.8 4.0 4.4 4.5 4.4 4.9 5.8 5.1 nan nan 5.6 5.8 5.8 6.0 6.1 5.1 nan nan nan nan 5.7 5.9 5.1
5.8 4.4 6.3 5.6 5.4 4.0 3.4 3.8 4.5 3.6 3.8 4.4 5.0 4.8 4.8 4.4 4.0 4.2 3.8 3.6 3.5 3.2 3.5 3.6 3.8 3.7 4.1 nan nan nan nan nan 5.7 6.3 5.8 5.3 nan nan nan 4.4 nan nan 3.8
6.6 5.7 6.1 6.4 7.0 6.4 4.4 4.6 4.9 3.6 3.9 4.0 4.9 4.9 4.2 4.7 4.3 4.4 4.5 4.5 4.3 4.4 5.1 4.2 4.5 4.6 4.1 4.3 nan nan nan nan 4.9 4.7 5.1 nan nan nan 3.0 nan nan 3.0 4.1
6.0 5.4 5.8 7.9 7.3 6.7 6.8 5.6 5.2 5.3 3.9 4.9 5.4 5.0 5.6 5.3 6.0 5.1 5.0 5.4 5.3 5.3 4.9 5.3 5.7 5.2 4.8 4.6 4.2 4.2 4.0 3.4 4.4 3.5 4.2 3.0 4.0 3.0 3.6 4.2 5.1 5.2 5.1
6.0 5.6 6.1 6.3 7.1 6.1 6.8 6.3 5.5 5.1 5.5 5.7 5.2 5.5 5.4 6.2 6.6 7.3 7.4 6.9 7.3 6.6 6.7 6.9 6.4 6.3 6.5 6.2 5.1 4.8 5.0 4.8 4.4 3.8 4.5 4.9 5.3 5.8 6.0 6.0 6.0 5.9 6.0
5.0 6.0 5.0 5.7 5.5 5.6 5.6 5.2 4.9 4.7 5.2 5.4 5.3 5.1 4.8 5.3 5.9 6.1 6.4 nan nan nan nan nan 5.4 5.5 nan nan nan nan nan nan nan 5.1 5.9 6.6 6.6 7.1 7.4 7.2 7.3 7.2 6.2